Time,TemperatureF,DewpointF,PressureIn,WindDirection,WindDirectionDegrees,WindSpeedMPH,WindSpeedGustMPH,Humidity,HourlyPrecipIn,Conditions,Clouds,dailyrainin,SoftwareType,DateUTC
2013-08-07 00:09:00,56.4,53.0,30.04,SW,219,2.0,-999.0,88,-99.99,,,0.00,weatherlink.com 1.10,2013-08-07 07:09:00,
2013-08-07 00:24:00,56.5,53.0,30.04,SW,227,2.0,-999.0,88,-99.99,,,0.00,weatherlink.com 1.10,2013-08-07 07:24:00,
2013-08-07 00:39:00,56.3,53.0,30.05,West,271,0.0,-999.0,89,-99.99,,,0.00,weatherlink.com 1.10,2013-08-07 07:39:00,
2013-08-07 00:54:00,56.3,54.0,30.05,WSW,245,0.0,-999.0,90,-99.99,,,0.00,weatherlink.com 1.10,2013-08-07 07:54:00,
2013-08-07 01:09:00,56.2,53.0,30.04,SW,222,0.0,-999.0,90,-99.99,,,0.00,weatherlink.com 1.10,2013-08-07 08:09:00,
2013-08-07 01:24:00,56.0,53.0,30.04,SSW,213,0.0,-999.0,90,-99.99,,,0.00,weatherlink.com 1.10,2013-08-07 08:24:00,
2013-08-07 01:39:00,55.8,53.0,30.04,SW,223,1.0,-999.0,91,-99.99,,,0.00,weatherlink.com 1.10,2013-08-07 08:39:00,
2013-08-07 01:54:00,55.7,53.0,30.04,SW,223,0.0,-999.0,91,-99.99,,,0.00,weatherlink.com 1.10,2013-08-07 08:54:00,
2013-08-07 02:09:00,55.6,53.0,30.04,SW,222,0.0,-999.0,92,-99.99,,,0.00,weatherlink.com 1.10,2013-08-07 09:09:00,
2013-08-07 02:24:00,55.7,54.0,30.04,SW,219,0.0,-999.0,92,-99.99,,,0.00,weatherlink.com 1.10,2013-08-07 09:24:00,
2013-08-07 02:39:00,55.6,53.0,30.04,SW,220,0.0,-999.0,92,-99.99,,,0.00,weatherlink.com 1.10,2013-08-07 09:39:00,
2013-08-07 02:54:00,55.3,53.0,30.05,SW,221,0.0,-999.0,91,-99.99,,,0.00,weatherlink.com 1.10,2013-08-07 09:54:00,
2013-08-07 03:09:00,55.2,53.0,30.05,SW,221,0.0,-999.0,91,-99.99,,,0.00,weatherlink.com 1.10,2013-08-07 10:09:00,
2013-08-07 03:24:00,55.1,53.0,30.04,SSW,203,0.0,-999.0,91,-99.99,,,0.00,weatherlink.com 1.10,2013-08-07 10:24:00,
2013-08-07 03:39:00,55.0,52.0,30.05,SSW,203,0.0,-999.0,90,-99.99,,,0.00,weatherlink.com 1.10,2013-08-07 10:39:00,
2013-08-07 03:54:00,55.0,52.0,30.05,SSW,203,0.0,-999.0,90,-99.99,,,0.00,weatherlink.com 1.10,2013-08-07 10:54:00,
2013-08-07 04:09:00,55.1,52.0,30.04,SSW,203,0.0,-999.0,90,-99.99,,,0.00,weatherlink.com 1.10,2013-08-07 11:09:00,
2013-08-07 04:24:00,55.2,52.0,30.04,SSW,203,0.0,-999.0,90,-99.99,,,0.00,weatherlink.com 1.10,2013-08-07 11:24:00,
2013-08-07 04:39:00,55.2,52.0,30.04,SSW,203,0.0,-999.0,89,-99.99,,,0.00,weatherlink.com 1.10,2013-08-07 11:39:00,
2013-08-07 04:54:00,55.3,53.0,30.04,SSW,203,0.0,-999.0,90,-99.99,,,0.00,weatherlink.com 1.10,2013-08-07 11:54:00,
2013-08-07 05:09:00,55.4,53.0,30.04,SSW,203,0.0,-999.0,90,-99.99,,,0.00,weatherlink.com 1.10,2013-08-07 12:09:00,
2013-08-07 05:24:00,55.0,52.0,30.04,SSW,203,0.0,-999.0,90,-99.99,,,0.00,weatherlink.com 1.10,2013-08-07 12:24:00,
2013-08-07 05:39:00,54.8,52.0,30.04,SSW,203,0.0,-999.0,91,-99.99,,,0.00,weatherlink.com 1.10,2013-08-07 12:39:00,
2013-08-07 05:54:00,54.8,52.0,30.04,SSW,203,0.0,-999.0,91,-99.99,,,0.00,weatherlink.com 1.10,2013-08-07 12:54:00,
2013-08-07 06:09:00,54.8,53.0,30.04,SSW,203,0.0,-999.0,92,-99.99,,,0.00,weatherlink.com 1.10,2013-08-07 13:09:00,
2013-08-07 06:24:00,54.9,53.0,30.04,SSW,203,0.0,-999.0,92,-99.99,,,0.00,weatherlink.com 1.10,2013-08-07 13:24:00,
2013-08-07 06:39:00,54.9,53.0,30.04,SSW,203,0.0,-999.0,92,-99.99,,,0.00,weatherlink.com 1.10,2013-08-07 13:39:00,
2013-08-07 06:54:00,55.1,53.0,30.05,SSW,204,0.0,-999.0,92,-99.99,,,0.00,weatherlink.com 1.10,2013-08-07 13:54:00,
2013-08-07 07:09:00,55.3,53.0,30.05,SSW,204,0.0,-999.0,92,-99.99,,,0.00,weatherlink.com 1.10,2013-08-07 14:09:00,
2013-08-07 07:24:00,55.2,53.0,30.05,SSW,203,0.0,-999.0,92,-99.99,,,0.00,weatherlink.com 1.10,2013-08-07 14:24:00,
2013-08-07 07:39:00,55.5,53.0,30.05,SSW,204,0.0,-999.0,92,-99.99,,,0.00,weatherlink.com 1.10,2013-08-07 14:39:00,
2013-08-07 07:54:00,55.9,54.0,30.05,SSW,203,0.0,-999.0,92,-99.99,,,0.00,weatherlink.com 1.10,2013-08-07 14:54:00,
2013-08-07 08:09:00,56.2,54.0,30.06,SSW,204,0.0,-999.0,91,-99.99,,,0.00,weatherlink.com 1.10,2013-08-07 15:09:00,
2013-08-07 08:24:00,56.7,54.0,30.07,WSW,242,6.0,-999.0,89,-99.99,,,0.00,weatherlink.com 1.10,2013-08-07 15:24:00,
2013-08-07 08:39:00,57.3,54.0,30.07,WSW,237,9.0,-999.0,87,-99.99,,,0.00,weatherlink.com 1.10,2013-08-07 15:39:00,
2013-08-07 08:54:00,57.9,54.0,30.07,WSW,237,4.0,-999.0,85,-99.99,,,0.00,weatherlink.com 1.10,2013-08-07 15:54:00,
2013-08-07 09:09:00,57.9,54.0,30.07,WSW,248,0.0,-999.0,85,-99.99,,,0.00,weatherlink.com 1.10,2013-08-07 16:09:00,
2013-08-07 09:24:00,57.9,54.0,30.08,SW,220,11.0,-999.0,86,-99.99,,,0.00,weatherlink.com 1.10,2013-08-07 16:24:00,
2013-08-07 09:39:00,57.6,54.0,30.09,SW,236,6.0,-999.0,87,-99.99,,,0.00,weatherlink.com 1.10,2013-08-07 16:39:00,
2013-08-07 09:54:00,57.6,54.0,30.09,West,267,6.0,-999.0,88,-99.99,,,0.00,weatherlink.com 1.10,2013-08-07 16:54:00,
2013-08-07 10:09:00,57.6,54.0,30.09,SW,227,2.0,-999.0,88,-99.99,,,0.00,weatherlink.com 1.10,2013-08-07 17:09:00,
2013-08-07 10:24:00,57.8,54.0,30.10,SW,222,6.0,-999.0,88,-99.99,,,0.00,weatherlink.com 1.10,2013-08-07 17:24:00,
2013-08-07 10:39:00,58.6,54.0,30.10,WSW,238,6.0,-999.0,85,-99.99,,,0.00,weatherlink.com 1.10,2013-08-07 17:39:00,
2013-08-07 10:54:00,58.9,55.0,30.10,SW,226,4.0,-999.0,86,-99.99,,,0.00,weatherlink.com 1.10,2013-08-07 17:54:00,
2013-08-07 11:09:00,58.5,54.0,30.11,WSW,238,12.0,-999.0,86,-99.99,,,0.00,weatherlink.com 1.10,2013-08-07 18:09:00,
2013-08-07 11:24:00,60.4,55.0,30.11,SW,233,3.0,-999.0,82,-99.99,,,0.00,weatherlink.com 1.10,2013-08-07 18:24:00,
2013-08-07 11:39:00,60.4,54.0,30.11,WSW,252,4.0,-999.0,80,-99.99,,,0.00,weatherlink.com 1.10,2013-08-07 18:39:00,
2013-08-07 11:55:00,60.1,55.0,30.11,WSW,246,5.0,-999.0,83,-99.99,,,0.00,weatherlink.com 1.10,2013-08-07 18:55:00,
2013-08-07 12:10:00,59.1,54.0,30.11,SW,221,6.0,-999.0,84,-99.99,,,0.00,weatherlink.com 1.10,2013-08-07 19:10:00,
2013-08-07 12:25:00,59.9,54.0,30.10,SW,230,5.0,-999.0,82,-99.99,,,0.00,weatherlink.com 1.10,2013-08-07 19:25:00,
2013-08-07 12:55:00,59.9,55.0,30.10,WSW,238,13.0,-999.0,84,-99.99,,,0.00,weatherlink.com 1.10,2013-08-07 19:55:00,
2013-08-07 13:09:00,61.3,55.0,30.09,South,182,12.0,-999.0,81,-99.99,,,0.00,weatherlink.com 1.10,2013-08-07 20:09:00,
2013-08-07 13:24:00,62.4,55.0,30.09,West,267,13.0,-999.0,78,-99.99,,,0.00,weatherlink.com 1.10,2013-08-07 20:24:00,
2013-08-07 13:39:00,62.1,55.0,30.09,SW,232,12.0,-999.0,77,-99.99,,,0.00,weatherlink.com 1.10,2013-08-07 20:39:00,
2013-08-07 13:54:00,62.1,55.0,30.09,WSW,240,4.0,-999.0,78,-99.99,,,0.00,weatherlink.com 1.10,2013-08-07 20:54:00,
2013-08-07 14:09:00,60.7,55.0,30.10,SW,220,2.0,-999.0,82,-99.99,,,0.00,weatherlink.com 1.10,2013-08-07 21:09:00,
2013-08-07 14:24:00,60.6,55.0,30.10,WSW,254,12.0,-999.0,82,-99.99,,,0.00,weatherlink.com 1.10,2013-08-07 21:24:00,
2013-08-07 14:39:00,60.4,56.0,30.09,West,271,2.0,-999.0,84,-99.99,,,0.00,weatherlink.com 1.10,2013-08-07 21:39:00,
2013-08-07 14:54:00,59.0,56.0,30.08,WSW,238,14.0,-999.0,88,-99.99,,,0.00,weatherlink.com 1.10,2013-08-07 21:54:00,
2013-08-07 15:09:00,59.1,55.0,30.08,WSW,250,7.0,-999.0,87,-99.99,,,0.00,weatherlink.com 1.10,2013-08-07 22:09:00,
2013-08-07 15:24:00,58.2,55.0,30.08,SW,222,7.0,-999.0,89,-99.99,,,0.00,weatherlink.com 1.10,2013-08-07 22:24:00,
2013-08-07 15:39:00,58.4,56.0,30.08,SW,222,5.0,-999.0,90,-99.99,,,0.00,weatherlink.com 1.10,2013-08-07 22:39:00,
2013-08-07 15:54:00,59.6,56.0,30.07,SW,232,3.0,-999.0,87,-99.99,,,0.00,weatherlink.com 1.10,2013-08-07 22:54:00,
2013-08-07 16:09:00,60.2,56.0,30.07,WSW,239,10.0,-999.0,86,-99.99,,,0.00,weatherlink.com 1.10,2013-08-07 23:09:00,
2013-08-07 16:24:00,60.0,56.0,30.07,WSW,242,0.0,-999.0,87,-99.99,,,0.00,weatherlink.com 1.10,2013-08-07 23:24:00,
2013-08-07 16:39:00,60.0,56.0,30.06,SW,234,14.0,-999.0,86,-99.99,,,0.00,weatherlink.com 1.10,2013-08-07 23:39:00,
2013-08-07 16:54:00,59.0,56.0,30.07,WSW,238,3.0,-999.0,89,-99.99,,,0.00,weatherlink.com 1.10,2013-08-07 23:54:00,
2013-08-07 17:24:00,60.2,56.0,30.06,WSW,249,1.0,-999.0,86,-99.99,,,0.00,weatherlink.com 1.10,2013-08-08 00:24:00,
2013-08-07 17:39:00,59.9,56.0,30.06,SW,231,11.0,-999.0,86,-99.99,,,0.00,weatherlink.com 1.10,2013-08-08 00:39:00,
2013-08-07 17:54:00,59.0,55.0,30.05,WSW,249,10.0,-999.0,87,-99.99,,,0.00,weatherlink.com 1.10,2013-08-08 00:54:00,
2013-08-07 18:09:00,58.7,55.0,30.05,WSW,247,4.0,-999.0,88,-99.99,,,0.00,weatherlink.com 1.10,2013-08-08 01:09:00,
2013-08-07 18:24:00,58.4,55.0,30.05,West,259,3.0,-999.0,89,-99.99,,,0.00,weatherlink.com 1.10,2013-08-08 01:24:00,
2013-08-07 18:39:00,58.1,55.0,30.05,WSW,242,0.0,-999.0,89,-99.99,,,0.00,weatherlink.com 1.10,2013-08-08 01:39:00,
2013-08-07 18:54:00,58.2,55.0,30.05,West,262,0.0,-999.0,89,-99.99,,,0.00,weatherlink.com 1.10,2013-08-08 01:54:00,
2013-08-07 19:09:00,58.0,55.0,30.05,SW,235,1.0,-999.0,89,-99.99,,,0.00,weatherlink.com 1.10,2013-08-08 02:09:00,
2013-08-07 19:24:00,57.9,55.0,30.04,WSW,241,0.0,-999.0,90,-99.99,,,0.00,weatherlink.com 1.10,2013-08-08 02:24:00,
2013-08-07 19:39:00,57.9,55.0,30.04,WSW,249,0.0,-999.0,90,-99.99,,,0.00,weatherlink.com 1.10,2013-08-08 02:39:00,
2013-08-07 19:54:00,57.8,55.0,30.04,SW,225,0.0,-999.0,91,-99.99,,,0.00,weatherlink.com 1.10,2013-08-08 02:54:00,
2013-08-07 20:09:00,57.8,55.0,30.04,SW,227,0.0,-999.0,91,-99.99,,,0.00,weatherlink.com 1.10,2013-08-08 03:09:00,
2013-08-07 20:24:00,57.8,55.0,30.04,SW,218,0.0,-999.0,91,-99.99,,,0.00,weatherlink.com 1.10,2013-08-08 03:24:00,
2013-08-07 20:39:00,57.7,55.0,30.04,SW,220,0.0,-999.0,91,-99.99,,,0.00,weatherlink.com 1.10,2013-08-08 03:39:00,
2013-08-07 20:54:00,57.7,55.0,30.04,SW,219,0.0,-999.0,91,-99.99,,,0.00,weatherlink.com 1.10,2013-08-08 03:54:00,
2013-08-07 21:09:00,57.7,55.0,30.04,SW,219,0.0,-999.0,91,-99.99,,,0.00,weatherlink.com 1.10,2013-08-08 04:09:00,
2013-08-07 21:24:00,57.7,55.0,30.04,SW,220,0.0,-999.0,91,-99.99,,,0.00,weatherlink.com 1.10,2013-08-08 04:24:00,
2013-08-07 21:39:00,57.6,55.0,30.05,SW,217,0.0,-999.0,91,-99.99,,,0.00,weatherlink.com 1.10,2013-08-08 04:39:00,
2013-08-07 21:54:00,57.5,55.0,30.05,SW,217,0.0,-999.0,92,-99.99,,,0.00,weatherlink.com 1.10,2013-08-08 04:54:00,
2013-08-07 22:09:00,57.5,55.0,30.04,SW,217,0.0,-999.0,92,-99.99,,,0.00,weatherlink.com 1.10,2013-08-08 05:09:00,
2013-08-07 22:24:00,57.4,55.0,30.04,SW,217,0.0,-999.0,92,-99.99,,,0.00,weatherlink.com 1.10,2013-08-08 05:24:00,
2013-08-07 22:39:00,57.4,55.0,30.04,SW,217,0.0,-999.0,92,-99.99,,,0.00,weatherlink.com 1.10,2013-08-08 05:39:00,
2013-08-07 22:54:00,57.4,55.0,30.04,SW,217,0.0,-999.0,92,-99.99,,,0.00,weatherlink.com 1.10,2013-08-08 05:54:00,
2013-08-07 23:09:00,57.4,55.0,30.04,SW,217,0.0,-999.0,92,-99.99,,,0.00,weatherlink.com 1.10,2013-08-08 06:09:00,
2013-08-07 23:24:00,57.4,55.0,30.04,SW,217,0.0,-999.0,92,-99.99,,,0.00,weatherlink.com 1.10,2013-08-08 06:24:00,
2013-08-07 23:39:00,57.4,55.0,30.04,SW,217,0.0,-999.0,92,-99.99,,,0.00,weatherlink.com 1.10,2013-08-08 06:39:00,
2013-08-07 23:54:00,57.4,55.0,30.04,SW,217,0.0,-999.0,92,-99.99,,,0.00,weatherlink.com 1.10,2013-08-08 06:54:00,